Location: Recife
(8.0585°S, 34.8848°W)
Time: 06:49:10
(UTC-03:00)

Vanguard 1 Rocket - Pass Details

Date: 22 April 2026
Orbit: 655 x 4212 km, 34.3° (Epoch: 13 May)

Event Time Altitude Azimuth Distance (km) Brightness Sun altitude
Rises 23:01:31 0° 321° (NW) 8,442 12.4 -84.0°
Reaches altitude 10° 23:18:13 10° 355° (N) 6,899 11.8 -85.6°
Maximum altitude 23:21:49 11° 4° (N) 6,632 11.7 -85.5°
Drops below altitude 10° 23:25:11 10° 14° (NNE) 6,429 11.7 -85.2°
Sets 23:37:00 0° 49° (NE) 6,324 11.8 -83.5°
